EHI
0 0 0 0 0 0 0 0 0 0 0 0 0 0 0 0 0 0 0 0 0 0 0 0 0 0 0 0 0 0 0 0 0 0 0 0 0 0 0 0 0 0 0
0 0 0 0 0 0 0 0 0 0 0 0 0 0 0 0 0 0 0 0 0 0 0 0 0 0 0 0 0 0 0 0 0 0 0 0 0 0 0 0 0 0 0
0 0 0 0 0 0 0 0 0 0 0 0 0 0 0 0 0 0 0 0 0 0 0 0 0 0 0 0 0 0 0 0 0 0 0 0 0 0 0 0 0 0 0
0 0 0 0 0 0 0 0 0 0 0 0 0 0 0 0 0 0 0 0 0 0 0 0 0 0 0 0 0 0 0 0 0 0 0 0 0 0 0 0 0 0 0
0 0 0 0 0 0 0 0 0 0 0 0 0 0 0 0 0 0 0 0 0 0 0 0 0 0 0 0 0 0 0 0 0 0 0 0 0 0 0 0 0 0 0
0 0 0 0 0 0 0 0 0 0 0 0 0 0 0 0 0 0 0 0 0 0 0 0 0 0 0 0 0 0 0 0 0 0 0 0 0 0 0 0 0 0 0
0 0 0 0 0 0 0 0 0 0 0 0 0 0 0 0 0 0 0 0 0 0 0 0 0 0 0 0 0 0 0 0 0 0 0 0 0 0 0 0 0 0 0
0 0 0 0 0 0 0 0 0 0 0 0 0 0 0 0 0 0 0 0 0 0 0 0 0 0 0 0 0 0 0 0 0 0 0 0 0 0 0 0 0 0 0
0 0 0 0 0 0 0 0 0 0 0 0 0 0 0 0 0 0 0 0 0 0 0 0 0 0 0 0 0 0 0 0 0 0 0 0 0 0 0 0 0 0 0
0 0 0 0 0 0 0 0 0 0 0 0 0 0 0 0 0 0 0 0 0 0 0 0 0 0 0 0 0 0 0 0 0 0 0 0 0 0 0 0 0 0 0
0 0 0 0 0 0 0 0 0 0 0 0 0 0 0 0 0 0 0 0 0 0 0 0 0 0 0 0 0 0 0 0 0 0 0 0 0 0 0 0 0 0 0
0 0 0 0 0 0 0 0 0 0 0 0 0 0 0 0 0 0 0 0 0 0 0 0 0 0 0 0 0 0 0 0 0 0 0 0 0 0 0 0 0 0 0
0 0 0 0 0 0 0 0 0 0 0 0 0 0 0 0 0 0 0 0 0 0 0 0 0 0 0 0 0 0 0 0 0 0 0 0 0 0 0 0 0 0 0
0 0 0 0 0 0 0 0 0 0 0 0 0 0 0 0 0 0 0 0 0 0 0 0 0 0 0 0 0 0 0 0 0 0 0 0 0 0 0 0 0 0 0
0 0 0 0 0 0 0 0 0 0 0 0 0 0 0 0 0 0 0 0 0 0 0 0 0 0 0 0 0 0 0 0 0 0 0 0 0 0 0 0 0 0 0
0 0 0 0 0 0 0 0 0 0 0 0 0 0 0 0 0 0 0 0 0 0 0 0 0 0 0 0 0 0 0 0 0 0 0 0 0 0 0 0 0 0 0
0 0 0 0 0 0 0 0 0 0 0 0 0 0 0 0 0 0 0 0 0 0 0 0 0 0 0 0 0 0 0 0 0 0 0 0 0 0 0 0 0 0 0
0 0 0 0 0 0 0 0 0 0 0 0 0 0 0 0 0 0 0 0 0 0 0 0 0 0 0 0 0 0 0 0 0 0 0 0 0 0 0 0 0 0 0
0 0 0 0 0 0 0 0 0 0 0 0 0 0 0 0 0 0 0 0 0 0 0 0 0 0 0 0 0 0 0 0 0 0 0 0 0 0 0 0 0 0 0
0 0 0 0 0 0 0 0 0 0 0 0 0 0 0 0 0 0 0 0 0 0 0 0 0 0 0 0 0 0 0 0 0 0 0 0 0 0 0 0 0 0 0
0 0 0 0 0 0 0 0 0 0 0 0 0 0 0 0 0 0 0 0 0 0 0 0 0 0 0 0 0 0 0 0 0 0 0 0 0 0 0 0 0 0 0
0 0 0 0 0 0 0 0 0 0 0 0 0 0 0 0 0 0 0 0 0 0 0 0 0 0 0 0 0 0 0 0 0 0 0 0 0 0 0 0 0 0 0
0 0 0 0 0 0 0 0 0 0 0 0 0 0 0 0 0 0 0 0 0 0 0 0 0 0 0 0 0 0 0 0 0 0 0 0 0 0 0 0 0 0 0
0 0 0 0 0 0 0 0 0 0 0 0 0 0 0 0 0 0 0 0 0 0 0 0 0 0 0 0 0 0 0 0 0 0 0 0 0 0 0 0 0 0 0
0 0 0 0 0 0 0 0 0 0 0 0 0 0 0 0 0 0 0 0 0 0 0 0 0 0 0 0 0 0 0 0 0 0 0 0 0 0 0 0 0 0 0
0 0 0 0 0 0 0 0 0 0 0 0 0 0 0 0 0 0 0 0 0 0 0 0 0 0 0 0 0 0 0 0 0 0 0 0 0 0 0 0 0 0 0
Wind_Speed
3 2 1 1 1 2 3 3 4 4 4 3 3 3 3 3 3 3 5 5 5 5 4 4 4 4 4 5 5 5 5 5 4 5 5 6 7 8 6 6 6 7 7
3 2 2 1 1 2 3 3 4 4 4 3 3 3 4 3 3 3 4 5 5 5 4 4 4 4 4 5 5 5 4 4 4 4 5 5 5 6 6 5 5 6 6
5 4 2 2 2 2 3 3 4 4 4 4 3 2 2 3 3 3 3 4 5 5 5 5 5 4 4 4 5 5 5 5 4 4 4 4 5 3 4 6 5 5 5
5 4 3 2 2 2 2 3 3 4 4 4 3 4 4 4 4 4 4 5 5 5 5 5 5 5 4 4 5 5 5 5 5 4 5 5 4 4 3 3 4 4 4
4 4 3 3 2 2 2 2 3 3 4 4 4 4 4 4 4 4 5 5 4 5 5 5 4 5 4 5 5 5 5 5 5 5 5 6 5 6 5 5 4 4 4
4 4 3 2 2 2 2 2 3 3 4 4 4 4 4 4 5 5 5 4 4 4 5 5 4 4 4 5 5 5 5 5 6 5 5 5 5 4 5 5 5 5 4
4 4 4 3 3 2 2 2 3 3 3 3 3 4 4 4 5 5 5 5 4 4 5 5 5 4 4 5 5 5 5 5 6 6 5 5 5 5 5 5 5 5 4
4 4 4 4 4 3 3 3 3 3 3 3 3 3 4 3 3 4 5 5 4 4 5 5 5 5 5 5 5 4 5 4 5 6 6 5 5 5 5 5 4 5 5
4 4 4 4 4 4 3 3 3 3 3 3 3 4 4 4 4 5 5 4 4 4 5 5 5 5 5 5 5 4 4 5 5 5 6 6 5 5 5 5 5 5 6
4 4 4 4 4 4 3 3 3 3 3 3 3 3 4 4 5 5 5 5 5 5 6 6 5 5 5 4 4 4 4 5 5 5 6 6 5 5 5 5 5 5 6
4 4 4 4 4 4 4 3 3 3 3 3 3 4 4 4 5 4 5 5 5 6 6 6 5 5 5 4 4 4 5 5 6 5 5 6 6 5 4 4 5 5 5
5 5 4 4 4 4 4 4 3 3 3 3 3 4 4 4 4 5 5 5 5 5 6 6 5 5 5 5 5 5 5 6 6 6 6 6 5 6 5 5 6 6 6
5 5 5 5 5 5 5 4 4 4 3 3 3 4 4 4 4 5 5 5 5 5 5 5 5 5 5 5 5 5 6 6 6 6 6 6 6 6 5 6 6 5 5
6 6 5 5 5 5 5 5 4 4 3 3 3 4 4 4 4 5 5 5 5 5 5 5 5 5 5 5 5 5 5 6 5 5 5 5 6 6 6 6 6 6 6
6 6 6 5 5 5 5 4 4 4 3 4 4 4 4 4 4 4 5 4 4 4 4 5 5 4 4 4 5 5 5 5 5 5 5 5 6 7 7 6 6 6 6
6 6 6 6 6 5 5 4 5 4 4 4 4 4 4 4 4 4 4 4 4 4 4 4 5 5 4 6 6 5 4 4 5 5 5 5 5 6 8 9 9 9 8
7 6 6 6 6 6 5 5 5 4 4 4 4 4 4 4 4 4 4 4 4 4 4 4 4 5 5 7 7 6 5 4 5 5 5 4 5 6 6 7 8 9 10
7 6 5 5 5 5 5 4 4 4 5 5 4 4 4 4 4 4 4 4 4 4 4 4 5 5 5 7 7 8 5 4 5 5 6 6 6 5 6 6 6 7 7
6 6 5 5 5 5 5 4 5 5 5 5 5 5 4 4 4 4 4 4 4 4 4 4 5 5 5 6 7 8 5 4 5 5 6 6 6 7 8 6 6 7 6
5 5 4 4 5 4 4 5 5 5 6 6 5 5 5 5 5 5 5 4 4 4 4 4 5 5 5 6 7 8 4 5 5 4 5 6 6 7 7 6 6 6 6
5 5 4 4 4 4 4 6 6 7 6 5 5 5 5 5 5 5 4 4 4 4 4 5 5 5 5 6 7 7 5 5 5 4 4 4 6 7 8 7 6 7 7
6 5 5 5 4 4 5 6 7 6 4 4 5 5 5 4 4 4 4 4 4 4 4 5 5 4 4 5 6 7 7 7 5 5 4 4 7 8 8 6 6 7 7
6 5 5 5 4 4 5 6 6 4 4 4 5 5 5 4 4 4 4 4 3 3 4 4 5 5 4 4 6 7 7 8 6 5 6 8 8 7 6 5 7 6 4
6 5 5 5 5 4 5 6 5 4 5 5 5 4 4 4 4 4 4 4 4 4 4 4 5 5 5 4 4 4 4 5 5 5 6 7 6 5 5 5 4 4 3
6 5 5 6 6 5 5 5 5 4 5 5 5 4 4 4 4 4 4 5 5 5 5 5 5 5 6 6 8 6 4 4 4 5 4 4 3 3 3 3 3 3 3
6 5 6 7 6 6 6 5 5 5 5 5 5 4 4 4 4 4 4 6 7 8 9 9 8 7 9 10 10 9 8 8 7 6 4 4 4 4 3 4 4 3 3
Wind_Direction
243 241 235 244 325 343 345 345 344 348 348 341 335 329 328 326 325 327 326 322 319 315 304 294 290 283 272 269 268 269 266 265 272 269 266 260 248 241 236 236 237 234 234
225 217 221 237 289 322 338 338 339 338 340 332 323 311 313 314 318 318 322 322 319 313 303 296 288 281 274 269 268 268 268 266 257 259 266 261 249 234 234 235 235 236 232
235 225 223 247 279 311 324 331 333 329 331 328 316 309 302 293 295 310 320 327 322 315 307 301 293 288 279 273 271 265 260 262 260 251 250 255 249 272 234 239 238 239 239
233 230 228 239 266 288 305 316 322 325 329 326 316 312 305 306 310 315 314 321 324 321 312 303 297 291 283 275 271 266 263 258 256 253 248 260 275 259 252 235 244 249 252
228 228 228 236 252 271 285 301 313 320 328 328 321 312 308 308 309 307 307 316 322 324 320 310 301 293 286 281 275 269 261 255 251 251 251 250 259 261 255 253 248 254 258
222 223 223 229 236 255 270 286 300 313 324 326 324 316 310 308 307 308 309 312 313 318 323 319 308 299 292 284 279 271 265 259 255 253 249 247 243 249 253 256 257 259 261
218 217 220 227 233 244 262 278 288 302 316 321 323 318 312 307 304 306 308 308 308 311 318 316 310 303 296 287 280 272 267 262 258 255 251 250 248 252 258 262 267 268 270
224 227 231 236 239 245 255 268 281 291 303 311 316 315 313 306 304 305 304 305 303 306 310 308 303 299 292 285 276 269 265 262 259 258 256 254 252 250 250 254 261 267 263
231 238 240 239 241 243 251 263 273 281 289 299 305 306 309 303 304 304 302 300 298 301 305 304 303 300 295 286 280 268 266 265 262 262 260 257 254 250 251 253 251 252 258
245 249 246 243 243 244 247 251 259 271 283 295 301 302 304 303 303 303 303 303 303 300 299 300 298 296 293 288 280 273 265 264 264 263 261 260 257 252 252 250 249 250 256
257 252 252 251 249 247 243 242 249 263 275 285 294 297 302 303 304 301 301 302 302 300 299 299 296 295 293 285 277 275 272 266 264 263 263 263 259 254 250 248 246 249 251
260 255 253 251 246 241 238 239 242 250 262 273 280 289 296 300 301 303 305 304 301 300 302 300 294 293 290 285 278 277 273 266 264 263 261 260 255 253 251 246 243 246 250
263 256 250 247 243 241 237 236 237 243 254 263 272 283 292 299 303 307 308 307 306 306 307 305 297 293 292 288 285 282 279 270 267 266 263 262 255 254 255 253 251 249 252
264 259 254 251 246 243 240 238 238 239 246 254 263 275 286 294 301 305 308 309 309 310 313 314 307 302 301 298 296 290 288 283 274 269 267 264 259 260 263 260 260 258 257
267 263 261 259 251 245 241 238 237 235 239 245 256 270 283 291 297 301 307 310 313 316 317 316 317 316 310 308 306 302 296 293 289 279 270 266 265 267 266 265 263 258 256
270 267 263 259 255 248 242 235 231 229 232 242 254 269 279 286 292 299 303 308 313 315 317 320 323 322 322 321 311 306 297 293 288 288 286 279 269 271 270 270 266 260 255
271 264 260 255 252 248 239 234 229 222 228 241 253 262 270 276 285 294 296 300 306 311 312 316 317 316 321 322 318 313 302 294 293 291 288 285 283 279 274 274 270 267 263
273 268 263 259 254 248 238 232 224 219 226 237 246 253 262 270 279 283 287 293 297 301 304 308 308 306 313 323 322 319 305 299 295 292 290 286 283 280 283 278 273 272 271
274 269 264 263 255 244 232 222 221 222 229 239 245 249 254 262 268 273 280 286 288 293 298 300 302 303 309 320 322 320 306 297 295 294 292 287 283 286 288 278 273 273 276
275 271 265 257 249 241 222 219 223 225 233 239 245 247 247 251 258 265 274 279 281 286 293 294 295 298 302 314 317 319 305 298 298 300 301 296 296 301 298 284 275 277 284
280 273 261 253 250 238 218 224 229 235 239 240 243 245 243 246 253 262 267 272 277 282 287 291 292 293 297 306 311 313 309 302 302 303 305 308 308 307 306 298 283 281 289
277 269 260 258 252 230 218 229 238 243 238 233 237 241 243 243 245 251 260 265 270 276 284 288 292 292 294 297 304 307 308 312 302 300 304 311 313 309 309 305 298 298 295
271 262 254 256 251 230 221 234 245 238 227 228 236 241 242 242 245 249 255 260 261 268 279 283 288 293 295 294 296 301 304 307 304 302 307 309 311 305 301 305 308 306 297
266 258 253 253 252 239 230 240 245 226 222 232 238 239 240 242 243 246 247 252 253 259 267 276 282 288 288 289 294 295 297 299 298 300 302 305 306 298 296 301 304 301 298
262 252 247 252 256 251 242 240 235 220 226 235 237 237 237 240 242 244 248 253 252 258 267 269 275 281 282 287 294 297 292 294 293 300 296 297 302 306 305 304 303 299 297
259 250 247 250 254 252 248 240 224 217 223 232 235 234 236 238 243 253 260 248 255 264 265 270 275 278 282 292 291 289 287 286 287 290 286 290 295 299 302 303 305 306 307